When you browse on this site, cookies collect data to enhance your experience and personalize the content and advertising you see.
Visit our Privacy Policy to learn more. By continuing to use the site, you agree to this use of cookies and data.
  • In Portugal
  • List of Countries
  • For 7 days
  • Water Temperature
  • Satellite Maps
  • Weather Map
  • Weather Widgets
  • user-avatar
    Login

    Hourly Weather Trzebien

    Today, 21 February, Thursday

    Time Temperature Precipitation Wind Pressure Humidity
    00:00 +4°C° 0 mm 3 mps 753 mmHg 83%
    01:00 +3°C° 0 mm 3 mps 753 mmHg 85%
    02:00 +3°C° 0 mm 3 mps 753 mmHg 86%
    03:00 +3°C° 0 mm 3 mps 753 mmHg 86%
    04:00 +3°C° 0 mm 3 mps 753 mmHg 86%
    05:00 +3°C° 0 mm 3 mps 753 mmHg 87%
    06:00 +3°C° 0 mm 3 mps 753 mmHg 87%
    07:00 +3°C° 0 mm 4 mps 753 mmHg 87%
    08:00 +4°C° 0 mm 4 mps 753 mmHg 83%
    09:00 +5°C° 0 mm 4 mps 753 mmHg 78%
    10:00 +6°C° 0 mm 5 mps 753 mmHg 74%
    11:00 +6°C° 0.5 mm 5 mps 753 mmHg 75%
    12:00 +6°C° 0.5 mm 5 mps 753 mmHg 75%
    13:00 +6°C° 0 mm 5 mps 752 mmHg 77%
    14:00 +6°C° 0.3 mm 5 mps 752 mmHg 76%
    15:00 +7°C° 0.3 mm 5 mps 752 mmHg 75%
    16:00 +7°C° 0.3 mm 5 mps 752 mmHg 74%
    17:00 +7°C° 0 mm 5 mps 752 mmHg 76%
    18:00 +7°C° 0 mm 5 mps 752 mmHg 79%
    19:00 +6°C° 0 mm 5 mps 752 mmHg 81%
    20:00 +6°C° 0.5 mm 5 mps 752 mmHg 84%
    21:00 +6°C° 0.5 mm 5 mps 751 mmHg 86%
    22:00 +6°C° 0.5 mm 5 mps 751 mmHg 89%
    23:00 +6°C° 1.3 mm 5 mps 751 mmHg 90%

    Tomorrow, 22 February, Friday

    Time Temperature Precipitation Wind Pressure Humidity
    00:00 +7°C° 1.3 mm 5 mps 751 mmHg 91%
    01:00 +7°C° 1.3 mm 5 mps 751 mmHg 92%
    02:00 +6°C° 0.7 mm 5 mps 752 mmHg 92%
    03:00 +6°C° 0.7 mm 5 mps 752 mmHg 92%
    04:00 +6°C° 0.7 mm 5 mps 753 mmHg 92%
    05:00 +3°C° 0.2 mm 5 mps 754 mmHg 89%
    06:00 +2°C° 0.2 mm 5 mps 755 mmHg 86%
    07:00 -1°C° 0.2 mm 6 mps 756 mmHg 83%
    08:00 0°C° 0 mm 5 mps 757 mmHg 78%
    09:00 -1°C° 0 mm 5 mps 759 mmHg 73%
    10:00 -1°C° 0 mm 5 mps 760 mmHg 69%
    11:00 0°C° 0 mm 5 mps 761 mmHg 62%
    12:00 0°C° 0 mm 5 mps 761 mmHg 55%
    13:00 +1°C° 0 mm 4 mps 762 mmHg 48%
    14:00 0°C° 0 mm 4 mps 762 mmHg 48%
    15:00 0°C° 0 mm 4 mps 763 mmHg 48%
    16:00 +1°C° 0 mm 3 mps 763 mmHg 48%
    17:00 0°C° 0 mm 3 mps 764 mmHg 51%
    18:00 -1°C° 0 mm 2 mps 765 mmHg 55%
    19:00 -2°C° 0 mm 2 mps 765 mmHg 59%
    20:00 -2°C° 0 mm 2 mps 766 mmHg 58%
    21:00 -2°C° 0 mm 2 mps 766 mmHg 57%
    22:00 -3°C° 0 mm 2 mps 767 mmHg 57%
    23:00 -3°C° 0 mm 2 mps 767 mmHg 55%

    Day after tomorrow, 23 February, Saturday

    Time Temperature Precipitation Wind Pressure Humidity
    00:00 -3°C° 0 mm 2 mps 767 mmHg 54%
    01:00 -3°C° 0 mm 2 mps 767 mmHg 53%
    02:00 -3°C° 0 mm 2 mps 767 mmHg 52%
    03:00 -3°C° 0 mm 2 mps 766 mmHg 52%
    04:00 -3°C° 0 mm 2 mps 766 mmHg 52%
    05:00 -4°C° 0 mm 2 mps 766 mmHg 52%
    06:00 -4°C° 0 mm 2 mps 767 mmHg 52%
    07:00 -4°C° 0 mm 2 mps 767 mmHg 52%
    08:00 -3°C° 0 mm 2 mps 767 mmHg 45%
    09:00 -2°C° 0 mm 2 mps 767 mmHg 39%
    10:00 -1°C° 0 mm 2 mps 767 mmHg 33%
    11:00 +1°C° 0 mm 2 mps 767 mmHg 29%
    12:00 +2°C° 0 mm 2 mps 767 mmHg 26%
    13:00 +3°C° 0 mm 2 mps 767 mmHg 23%
    14:00 +3°C° 0 mm 2 mps 766 mmHg 24%
    15:00 +3°C° 0 mm 2 mps 766 mmHg 25%
    16:00 +3°C° 0 mm 2 mps 766 mmHg 26%
    17:00 +2°C° 0 mm 2 mps 765 mmHg 31%
    18:00 +1°C° 0 mm 2 mps 765 mmHg 35%
    19:00 -2°C° 0 mm 2 mps 765 mmHg 40%
    20:00 -2°C° 0 mm 2 mps 765 mmHg 40%
    21:00 0°C° 0 mm 1 mps 765 mmHg 40%
    22:00 0°C° 0 mm 1 mps 765 mmHg 40%
    23:00 0°C° 0 mm 1 mps 765 mmHg 39%

    24 February, Sunday

    Time Temperature Precipitation Wind Pressure Humidity
    00:00 0°C° 0 mm 1 mps 765 mmHg 38%
    01:00 0°C° 0 mm 0 mps 765 mmHg 37%
    02:00 +1°C° 0 mm 1 mps 764 mmHg 37%
    03:00 +1°C° 0 mm 1 mps 764 mmHg 37%
    04:00 +1°C° 0 mm 1 mps 764 mmHg 37%
    05:00 +1°C° 0 mm 1 mps 764 mmHg 38%
    06:00 +1°C° 0 mm 1 mps 764 mmHg 38%
    07:00 0°C° 0 mm 1 mps 764 mmHg 39%
    08:00 +2°C° 0 mm 1 mps 764 mmHg 35%
    09:00 +3°C° 0 mm 2 mps 764 mmHg 32%
    10:00 +4°C° 0 mm 2 mps 764 mmHg 29%
    11:00 +6°C° 0 mm 2 mps 764 mmHg 29%
    12:00 +7°C° 0 mm 2 mps 764 mmHg 28%
    13:00 +8°C° 0 mm 2 mps 763 mmHg 28%
    14:00 +8°C° 0 mm 2 mps 763 mmHg 33%
    15:00 +7°C° 0 mm 2 mps 763 mmHg 39%
    16:00 +7°C° 0 mm 2 mps 763 mmHg 44%
    17:00 +5°C° 0 mm 2 mps 763 mmHg 49%
    18:00 +4°C° 0 mm 2 mps 763 mmHg 55%
    19:00 +2°C° 0 mm 2 mps 763 mmHg 60%
    20:00 +2°C° 0 mm 2 mps 763 mmHg 61%
    21:00 +2°C° 0 mm 2 mps 763 mmHg 63%
    22:00 +2°C° 0 mm 2 mps 764 mmHg 65%
    23:00 +2°C° 0 mm 2 mps 764 mmHg 66%

    25 February, Monday

    Time Temperature Precipitation Wind Pressure Humidity
    00:00 +1°C° 0 mm 2 mps 764 mmHg 67%
    01:00 +1°C° 0 mm 2 mps 764 mmHg 68%
    02:00 +1°C° 0 mm 2 mps 764 mmHg 69%
    03:00 +1°C° 0 mm 2 mps 764 mmHg 70%
    04:00 +1°C° 0 mm 2 mps 764 mmHg 71%
    05:00 +1°C° 0 mm 2 mps 764 mmHg 72%
    06:00 +1°C° 0 mm 2 mps 764 mmHg 74%
    07:00 +1°C° 0 mm 2 mps 764 mmHg 75%
    08:00 +2°C° 0 mm 2 mps 764 mmHg 70%
    09:00 +4°C° 0 mm 2 mps 764 mmHg 65%
    10:00 +6°C° 0 mm 2 mps 764 mmHg 60%
    11:00 +7°C° 0 mm 2 mps 764 mmHg 57%
    12:00 +9°C° 0 mm 2 mps 764 mmHg 54%
    13:00 +10°C° 0 mm 2 mps 764 mmHg 50%
    14:00 +10°C° 0 mm 2 mps 764 mmHg 53%
    15:00 +10°C° 0 mm 2 mps 763 mmHg 55%
    16:00 +10°C° 0 mm 2 mps 763 mmHg 57%
    17:00 +9°C° 0 mm 2 mps 763 mmHg 62%
    18:00 +8°C° 0 mm 2 mps 763 mmHg 68%
    19:00 +6°C° 0 mm 2 mps 763 mmHg 74%
    20:00 +6°C° 0 mm 2 mps 762 mmHg 75%
    21:00 +5°C° 0 mm 2 mps 762 mmHg 77%
    22:00 +5°C° 0 mm 2 mps 762 mmHg 79%
    23:00 +5°C° 0 mm 2 mps 762 mmHg 80%

    26 February, Tuesday

    Time Temperature Precipitation Wind Pressure Humidity
    00:00 +4°C° 0 mm 2 mps 762 mmHg 82%
    01:00 +4°C° 0 mm 2 mps 761 mmHg 83%
    02:00 +3°C° 0 mm 3 mps 761 mmHg 84%
    03:00 +3°C° 0 mm 3 mps 760 mmHg 85%
    04:00 +3°C° 0 mm 3 mps 760 mmHg 86%
    05:00 +3°C° 0 mm 3 mps 760 mmHg 87%
    06:00 +3°C° 0 mm 3 mps 759 mmHg 88%
    07:00 +1°C° 0 mm 4 mps 759 mmHg 89%
    08:00 +4°C° 0 mm 4 mps 759 mmHg 83%
    09:00 +5°C° 0 mm 4 mps 759 mmHg 77%
    10:00 +7°C° 0 mm 5 mps 759 mmHg 71%
    11:00 +8°C° 0 mm 5 mps 758 mmHg 65%
    12:00 +9°C° 0 mm 5 mps 758 mmHg 58%
    13:00 +12°C° 0 mm 5 mps 757 mmHg 52%
    14:00 +12°C° 0 mm 5 mps 757 mmHg 54%
    15:00 +12°C° 0 mm 5 mps 757 mmHg 56%
    16:00 +12°C° 0 mm 5 mps 756 mmHg 57%
    17:00 +10°C° 0 mm 4 mps 756 mmHg 63%
    18:00 +8°C° 0 mm 4 mps 756 mmHg 69%
    19:00 +8°C° 0 mm 3 mps 757 mmHg 74%
    20:00 +8°C° 0 mm 3 mps 757 mmHg 78%
    21:00 +7°C° 0 mm 3 mps 757 mmHg 82%
    22:00 +7°C° 0 mm 3 mps 757 mmHg 85%
    23:00 +7°C° 0 mm 2 mps 757 mmHg 88%
    Show more